Innsbruck, Austria

5:52 PM CEST on June 24, 2018 (GMT +0200)
Innsbruck

Weather History for LOWI - September, 2017

Change the Weather History Date:

Thursday, September 14, 2017

  Actual Average Record
Temperature  
Mean Temperature 58 °F -  
Max Temperature 70 °F 63 °F 83 °F (2016)
Min Temperature 46 °F 44 °F 42 °F (1996)
Degree Days  
Heating Degree Days 7    
Growing Degree Days 8 (Base 50)    
Moisture  
Dew Point 47 °F    
Average Humidity 77    
Maximum Humidity 94    
Minimum Humidity 34    
Precipitation  
Precipitation 0.31 in - - ()
Sea Level Pressure  
Sea Level Pressure 29.88 in    
Wind  
Wind Speed 10 mph ()    
Max Wind Speed 24 mph    
Max Gust Speed 44 mph    
Visibility 7.9 miles    
Events Rain    
Averages and records for this station are not official NWS values.
T = Trace of Precipitation, MM = Missing Value Source: Averaged Metar Reports

Daily Weather History Graph

Daily Weather History Graph

Search for Another Location

Airport or City:

Astronomy

Sep. 14, 2017 Rise Set
Actual Time 6:50 AM CEST 7:28 PM CEST
Civil Twilight 6:19 AM CEST 7:59 PM CEST
Nautical Twilight 5:43 AM CEST 8:35 PM CEST
Astronomical Twilight 5:04 AM CEST 9:13 PM CEST
Moon 12:14 AM CEST (9/14) 3:47 PM CEST (9/14)
Length of Visible Light 13h 39m
Length of Day
12h 37m
Last Quarter, 37% of the Moon is Illuminated
Sep 14
Last Quarter
Sep 20
New
Sep 28
First Quarter
Oct 5
Full
Oct 12
Last Quarter

Hourly Weather History & Observations

Time (CEST) Temp. Dew Point Humidity Pressure Visibility Wind Dir Wind Speed Gust Speed Precip Events Conditions
12:00 AM 55 °F 51 °F 83% 29.93 in 25 mi West 8.9 mph - -   Scattered Clouds
12:20 AM 53.6 °F 50.0 °F 88% 29.95 in 6.2 mi West 10.4 mph - N/A   Partly Cloudy
12:50 AM 53.6 °F 50.0 °F 88% 29.95 in 6.2 mi West 11.5 mph - N/A   Scattered Clouds
1:00 AM 54 °F 50 °F 83% 29.93 in 9 mi West 11.2 mph - -   Partly Cloudy
1:50 AM 53.6 °F 50.0 °F 88% 29.92 in 6.2 mi SW 8.1 mph - N/A   Partly Cloudy
2:00 AM 53 °F 50 °F 87% 29.91 in 11 mi SW 8.9 mph - -  
2:20 AM 53.6 °F 50.0 °F 88% 29.92 in 6.2 mi West 11.5 mph - N/A   Partly Cloudy
2:50 AM 51.8 °F 50.0 °F 94% 29.89 in 6.2 mi West 10.4 mph - N/A   Unknown
3:00 AM 52 °F 49 °F 88% 29.90 in 22 mi West 11.2 mph - -  
3:20 AM 51.8 °F 50.0 °F 94% 29.89 in 6.2 mi West 10.4 mph - N/A   Partly Cloudy
3:50 AM 51.8 °F 48.2 °F 88% 29.89 in 6.2 mi West 5.8 mph - N/A   Unknown
4:00 AM 51 °F 49 °F 90% 29.89 in 25 mi 6.7 mph - -  
4:20 AM 51.8 °F 48.2 °F 88% 29.86 in 6.2 mi West 11.5 mph - N/A   Unknown
4:50 AM 50.0 °F 48.2 °F 94% 29.86 in 6.2 mi West 10.4 mph - N/A   Unknown
5:00 AM 51 °F 49 °F 88% 29.87 in 25 mi West 11.2 mph - -  
5:20 AM 50.0 °F 48.2 °F 94% 29.86 in 6.2 mi West 12.7 mph - N/A   Unknown
5:50 AM 50.0 °F 48.2 °F 94% 29.86 in - West 10.4 mph - N/A   Clear
6:00 AM 49 °F 47 °F 92% 29.87 in 11 mi West 11.2 mph - -  
6:20 AM 50.0 °F 48.2 °F 94% 29.86 in - West 13.8 mph - N/A   Clear
6:50 AM 48.2 °F 46.4 °F 93% 29.86 in 6.2 mi West 9.2 mph - N/A   Partly Cloudy
7:00 AM 49 °F 47 °F 90% 29.87 in 8 mi West 8.9 mph - -   Scattered Clouds
7:20 AM 48.2 °F 46.4 °F 93% 29.83 in 6.2 mi West 11.5 mph - N/A   Partly Cloudy
7:50 AM 50.0 °F 48.2 °F 94% 29.83 in 6.2 mi WSW 13.8 mph - N/A   Partly Cloudy
8:00 AM 50 °F 48 °F 89% 29.85 in 6 mi WSW 13.4 mph - -   Scattered Clouds
8:20 AM 51.8 °F 48.2 °F 88% 29.83 in 6.2 mi West 11.5 mph - N/A   Partly Cloudy
8:50 AM 53.6 °F 50.0 °F 88% 29.83 in 6.2 mi West 13.8 mph - N/A   Partly Cloudy
9:00 AM 53 °F 49 °F 83% 29.81 in 7 mi West 13.4 mph - -   Scattered Clouds
9:20 AM 57.2 °F 50.0 °F 77% 29.80 in 6.2 mi West 12.7 mph - N/A   Partly Cloudy
9:50 AM 62.6 °F 48.2 °F 59% 29.80 in 6.2 mi Variable 8.1 mph 19.6 mph N/A   Partly Cloudy
10:00 AM 62 °F 49 °F 52% 29.77 in 9 mi SW 8.9 mph - -   Scattered Clouds
10:20 AM 68.0 °F 48.2 °F 49% 29.77 in 6.2 mi South 20.7 mph 34.5 mph N/A   Partly Cloudy
10:50 AM 68.0 °F 46.4 °F 46% 29.77 in 6.2 mi SE 21.9 mph 43.7 mph N/A   Scattered Clouds
11:00 AM 69 °F 47 °F 34% 29.70 in 15 mi SE 22.4 mph - -   Partly Cloudy
11:20 AM 69.8 °F 46.4 °F 43% 29.77 in 6.2 mi SE 23.0 mph 43.7 mph N/A   Scattered Clouds
11:50 AM 69.8 °F 48.2 °F 46% 29.77 in 6.2 mi ESE 19.6 mph 34.5 mph N/A   Scattered Clouds
12:00 PM 70 °F 48 °F 34% 29.69 in 16 mi ESE 20.1 mph - -   Partly Cloudy
12:20 PM 68.0 °F 48.2 °F 49% 29.77 in 6.2 mi ESE 24.2 mph 42.6 mph N/A   Scattered Clouds
12:50 PM 68.0 °F 48.2 °F 49% 29.74 in 6.2 mi ESE 19.6 mph 38.0 mph N/A   Mostly Cloudy
1:00 PM 68 °F 48 °F 38% 29.67 in 18 mi ESE 20.1 mph - -   Scattered Clouds
1:20 PM 68.0 °F 46.4 °F 46% 29.74 in 6.2 mi ESE 19.6 mph 41.4 mph N/A   Mostly Cloudy
1:50 PM 68.0 °F 48.2 °F 49% 29.71 in 6.2 mi ESE 12.7 mph 26.5 mph N/A   Mostly Cloudy
2:00 PM 69 °F 47 °F 35% 29.66 in 19 mi ESE 13.4 mph - -   Scattered Clouds
2:20 PM 66.2 °F 50.0 °F 56% 29.74 in 6.2 mi WSW 12.7 mph - N/A   Mostly Cloudy
2:50 PM 64.4 °F 50.0 °F 59% 29.77 in 6.2 mi Variable 6.9 mph - N/A   Mostly Cloudy
3:00 PM 64 °F 49 °F 49% 29.72 in 19 mi West 6.7 mph - -   Overcast
3:20 PM 60.8 °F 46.4 °F 59% 29.80 in 6.2 mi ESE 9.2 mph - N/A   Mostly Cloudy
3:50 PM 57.2 °F 44.6 °F 63% 29.83 in 6.2 mi ESE 16.1 mph 31.1 mph N/A Rain Light Rain
4:00 PM 57 °F 45 °F 55% 29.81 in 19 mi ESE 15.7 mph - - Rain Light Rain
4:20 PM 51.8 °F 46.4 °F 82% 29.89 in 6.2 mi SW 10.4 mph - N/A Rain Rain
4:50 PM 50.0 °F 44.6 °F 82% 29.95 in 5.0 mi WSW 16.1 mph - N/A Rain Rain
5:00 PM 50 °F 45 °F 76% 29.94 in 4 mi WSW 15.7 mph - - Rain Rain
5:20 PM 50.0 °F 44.6 °F 82% 29.95 in 6.2 mi Variable 2.3 mph - N/A Rain Light Rain
5:50 PM 50.0 °F 46.4 °F 87% 29.95 in 6.2 mi ENE 6.9 mph - N/A Rain Light Rain
6:00 PM 49 °F 47 °F 88% 29.97 in 12 mi ENE 6.7 mph - - Rain Light Rain
6:20 PM 48.2 °F 46.4 °F 93% 29.98 in 6.2 mi ENE 15.0 mph 31.1 mph N/A Rain Light Rain
6:50 PM 48.2 °F 46.4 °F 93% 29.98 in 6.2 mi East 9.2 mph - N/A   Mostly Cloudy
7:00 PM 49 °F 46 °F 84% 29.99 in 17 mi East 8.9 mph - -   Scattered Clouds
7:20 PM 48.2 °F 46.4 °F 93% 29.95 in 6.2 mi ESE 8.1 mph - N/A   Mostly Cloudy
7:50 PM 48.2 °F 46.4 °F 93% 29.98 in 6.2 mi East 4.6 mph - N/A   Mostly Cloudy
8:00 PM 48 °F 46 °F 89% 30.01 in 14 mi 4.5 mph - -   Scattered Clouds
8:20 PM 48.2 °F 44.6 °F 87% 30.01 in 6.2 mi NE 4.6 mph - N/A   Scattered Clouds
8:50 PM 48.2 °F 44.6 °F 87% 30.04 in 6.2 mi Variable 2.3 mph - N/A   Scattered Clouds
9:00 PM 47 °F 45 °F 92% 30.05 in 6 mi 2.2 mph - -   Scattered Clouds
9:20 PM 46.4 °F 44.6 °F 93% 30.04 in 6.2 mi Variable 2.3 mph - N/A   Scattered Clouds
9:50 PM 48.2 °F 46.4 °F 93% 30.06 in 6.2 mi East 3.5 mph - N/A   Scattered Clouds
10:00 PM 47 °F 46 °F 93% 30.09 in 7 mi 4.5 mph - -   Scattered Clouds
10:20 PM 48.2 °F 46.4 °F 93% 30.06 in 6.2 mi ESE 3.5 mph - N/A   Scattered Clouds
11:00 PM 47 °F 45 °F 89% 30.10 in 8 mi Calm Calm - -   Scattered Clouds
11:20 PM 46.4 °F 44.6 °F 93% 30.09 in 6.2 mi Variable 1.2 mph - N/A   Mostly Cloudy
11:50 PM 46.4 °F 44.6 °F 93% 30.09 in 6.2 mi South 2.3 mph - N/A   Scattered Clouds